QFA47 YPDN-WSSS

Flight info

Callsign QFA47
Flight time N/A
Altitude 34000
Route JULIE J61 IKUMA A464 KIKEM M774 OBDOS
Aircraft B738/M-SDE2E3FGHIRWXY/LB1

Departure

Time 2026-04-12 02:52
Airport Darwin International Airport / RAAF Darwin (YPDN)

Arrival

Time N/A
Airport Singapore Changi Airport (WSSS)
Time Latitude Longitude Altitude Speed Heading
2026-04-12 02:28 -12.40870 130.87682 89 ft 0 kts 19°
2026-04-12 02:41 -12.40871 130.87682 89 ft 2 kts 19°
2026-04-12 02:41 -12.40895 130.87672 92 ft 4 kts 24°
2026-04-12 02:41 -12.40920 130.87662 89 ft 4 kts 11°
2026-04-12 02:42 -12.40941 130.87660 91 ft 4 kts 351°
2026-04-12 02:42 -12.40960 130.87670 90 ft 4 kts 285°
2026-04-12 02:42 -12.40961 130.87696 89 ft 4 kts 261°
2026-04-12 02:43 -12.40958 130.87727 89 ft 1 kts 280°
2026-04-12 02:45 -12.40958 130.87725 89 ft 1 kts 280°
2026-04-12 02:45 -12.40954 130.87703 89 ft 7 kts 280°
2026-04-12 02:45 -12.40967 130.87633 90 ft 12 kts 238°
2026-04-12 02:45 -12.41033 130.87589 90 ft 11 kts 200°
2026-04-12 02:46 -12.41106 130.87563 89 ft 11 kts 199°
2026-04-12 02:46 -12.41178 130.87538 92 ft 11 kts 199°
2026-04-12 02:46 -12.41249 130.87513 92 ft 11 kts 199°
2026-04-12 02:46 -12.41347 130.87479 90 ft 18 kts 199°
2026-04-12 02:47 -12.41463 130.87423 92 ft 18 kts 224°
2026-04-12 02:47 -12.41484 130.87303 91 ft 18 kts 288°
2026-04-12 02:47 -12.41444 130.87186 92 ft 17 kts 288°
2026-04-12 02:47 -12.41406 130.87073 90 ft 17 kts 289°
2026-04-12 02:48 -12.41369 130.86964 90 ft 16 kts 288°
2026-04-12 02:48 -12.41333 130.86859 89 ft 15 kts 289°
2026-04-12 02:48 -12.41300 130.86760 91 ft 15 kts 289°
2026-04-12 02:48 -12.41267 130.86664 92 ft 14 kts 289°
2026-04-12 02:49 -12.41235 130.86572 90 ft 13 kts 289°
2026-04-12 02:49 -12.41186 130.86495 89 ft 13 kts 324°
2026-04-12 02:49 -12.41102 130.86477 89 ft 13 kts
2026-04-12 02:49 -12.41061 130.86490 89 ft 5 kts 19°
2026-04-12 02:50 -12.41023 130.86504 89 ft 7 kts 19°
2026-04-12 02:50 -12.40964 130.86528 89 ft 10 kts 35°
2026-04-12 02:50 -12.40951 130.86571 89 ft 0 kts 108°
2026-04-12 02:51 -12.40966 130.86614 89 ft 28 kts 109°
2026-04-12 02:51 -12.41110 130.87039 90 ft 97 kts 109°
2026-04-12 02:51 -12.41399 130.87893 92 ft 154 kts 109°
2026-04-12 02:51 -12.41790 130.89031 414 ft 178 kts 109°
2026-04-12 02:52 -12.42217 130.90262 1049 ft 193 kts 109°
2026-04-12 02:52 -12.42663 130.91602 1565 ft 209 kts 108°
2026-04-12 02:52 -12.43148 130.93097 1990 ft 229 kts 108°
2026-04-12 02:52 -12.43655 130.94651 2719 ft 236 kts 107°
2026-04-12 02:53 -12.43737 130.96325 3472 ft 243 kts 73°
2026-04-12 02:53 -12.43468 130.96960 3827 ft 243 kts 61°
2026-04-12 02:53 -12.40617 130.98746 5393 ft 260 kts
2026-04-12 02:54 -12.38805 130.98454 6151 ft 271 kts 339°
2026-04-12 02:54 -12.37191 130.97434 6884 ft 278 kts 322°
2026-04-12 02:54 -12.35717 130.96111 7614 ft 284 kts 319°
2026-04-12 02:54 -12.34429 130.94580 8189 ft 296 kts 299°
2026-04-12 02:55 -12.33501 130.92622 8620 ft 315 kts 292°
2026-04-12 02:55 -12.32630 130.90527 9402 ft 323 kts 292°
2026-04-12 02:55 -12.31764 130.88408 10381 ft 324 kts 292°
2026-04-12 02:55 -12.30863 130.86232 10861 ft 343 kts 292°
2026-04-12 02:56 -12.29887 130.83915 11182 ft 364 kts 293°
2026-04-12 02:56 -12.28860 130.81519 11933 ft 368 kts 294°
2026-04-12 02:56 -12.27841 130.79168 12914 ft 366 kts 294°
2026-04-12 02:56 -12.26797 130.76779 13677 ft 371 kts 294°
2026-04-12 02:57 -12.25732 130.74353 14379 ft 376 kts 294°
2026-04-12 02:57 -12.24654 130.71905 15109 ft 380 kts 294°
2026-04-12 02:57 -12.24028 130.70485 15514 ft 382 kts 294°
2026-04-12 02:58 -12.23213 130.68587 15898 ft 390 kts 294°
2026-04-12 02:58 -12.22103 130.66058 16601 ft 391 kts 294°
2026-04-12 02:58 -12.20983 130.63532 17361 ft 391 kts 295°
2026-04-12 02:58 -12.19853 130.60993 18013 ft 394 kts 295°
2026-04-12 02:59 -12.18729 130.58467 18610 ft 397 kts 295°
2026-04-12 02:59 -12.17581 130.55881 19177 ft 402 kts 295°
2026-04-12 02:59 -12.16424 130.53272 19749 ft 404 kts 295°
2026-04-12 02:59 -12.15259 130.50646 20314 ft 407 kts 294°
2026-04-12 03:00 -12.14087 130.47999 20825 ft 411 kts 294°
2026-04-12 03:00 -12.12904 130.45326 21333 ft 414 kts 294°
2026-04-12 03:00 -12.11716 130.42642 21841 ft 416 kts 295°
2026-04-12 03:00 -12.10520 130.39942 22306 ft 419 kts 295°
2026-04-12 03:01 -12.09312 130.37214 22740 ft 423 kts 295°
2026-04-12 03:01 -12.08113 130.34505 23183 ft 425 kts 295°
2026-04-12 03:01 -12.06889 130.31743 23634 ft 427 kts 295°
2026-04-12 03:01 -12.05662 130.28976 24066 ft 429 kts 295°
2026-04-12 03:02 -12.04424 130.26187 24458 ft 432 kts 295°
2026-04-12 03:02 -12.03178 130.23379 24835 ft 435 kts 295°
2026-04-12 03:02 -12.02481 130.21806 25058 ft 436 kts 295°
2026-04-12 03:03 -12.01431 130.19446 25385 ft 438 kts 295°
2026-04-12 03:03 -12.00170 130.16608 25747 ft 440 kts 295°
2026-04-12 03:03 -11.98921 130.13792 26093 ft 442 kts 295°
2026-04-12 03:03 -11.97648 130.10926 26441 ft 444 kts 295°
2026-04-12 03:04 -11.96368 130.08046 26768 ft 446 kts 295°
2026-04-12 03:04 -11.95080 130.05153 27086 ft 448 kts 295°
2026-04-12 03:04 -11.93791 130.02254 27384 ft 450 kts 295°
2026-04-12 03:04 -11.92493 129.99337 27667 ft 452 kts 295°
2026-04-12 03:05 -11.91191 129.96411 27963 ft 454 kts 295°
2026-04-12 03:05 -11.89885 129.93476 28255 ft 455 kts 295°
2026-04-12 03:05 -11.88594 129.90577 28556 ft 455 kts 295°
2026-04-12 03:05 -11.87279 129.87627 28818 ft 457 kts 295°
2026-04-12 03:06 -11.85961 129.84669 29034 ft 459 kts 295°
2026-04-12 03:06 -11.84637 129.81698 29262 ft 461 kts 295°
2026-04-12 03:06 -11.83309 129.78718 29493 ft 462 kts 295°
2026-04-12 03:06 -11.81975 129.75723 29718 ft 464 kts 295°
2026-04-12 03:07 -11.80639 129.72729 29926 ft 465 kts 295°
2026-04-12 03:07 -11.79280 129.69726 30123 ft 466 kts 297°
2026-04-12 03:07 -11.78497 129.68119 30225 ft 467 kts 298°
2026-04-12 03:08 -11.77335 129.65850 30367 ft 468 kts 299°
2026-04-12 03:08 -11.75786 129.62932 30546 ft 469 kts 300°
2026-04-12 03:08 -11.74212 129.60010 30729 ft 470 kts 300°
2026-04-12 03:08 -11.72641 129.57086 30983 ft 470 kts 300°
2026-04-12 03:09 -11.71079 129.54162 31280 ft 468 kts 299°
2026-04-12 03:09 -11.69532 129.51243 31549 ft 467 kts 299°
2026-04-12 03:09 -11.67993 129.48328 31792 ft 467 kts 299°
2026-04-12 03:09 -11.66475 129.45445 32008 ft 467 kts 299°
2026-04-12 03:10 -11.64943 129.42532 32215 ft 467 kts 299°
2026-04-12 03:10 -11.63408 129.39613 32439 ft 466 kts 299°
2026-04-12 03:10 -11.61878 129.36703 32669 ft 465 kts 299°
2026-04-12 03:10 -11.60349 129.33797 32872 ft 465 kts 299°
2026-04-12 03:11 -11.58820 129.30895 33075 ft 465 kts 299°
2026-04-12 03:11 -11.57290 129.27993 33292 ft 464 kts 299°
2026-04-12 03:11 -11.55762 129.25096 33514 ft 463 kts 299°
2026-04-12 03:11 -11.54237 129.22204 33707 ft 463 kts 299°
2026-04-12 03:12 -11.52733 129.19353 33874 ft 463 kts 299°
2026-04-12 03:12 -11.51209 129.16465 33937 ft 464 kts 299°
2026-04-12 03:12 -11.50377 129.14890 33934 ft 464 kts 299°
2026-04-12 03:13 -11.47573 129.09580 33957 ft 463 kts 299°
2026-04-12 03:13 -11.44526 129.03810 33938 ft 462 kts 299°
2026-04-12 03:14 -11.41502 128.98088 33949 ft 461 kts 299°
2026-04-12 03:14 -11.38462 128.92340 33953 ft 461 kts 299°
2026-04-12 03:15 -11.35422 128.86597 33938 ft 460 kts 298°
2026-04-12 03:15 -11.32382 128.80854 33953 ft 460 kts 299°
2026-04-12 03:16 -11.29343 128.75117 33946 ft 460 kts 299°
2026-04-12 03:16 -11.26328 128.69428 33937 ft 460 kts 298°
2026-04-12 03:17 -11.23287 128.63694 33953 ft 460 kts 298°
2026-04-12 03:17 -11.22478 128.62170 33940 ft 461 kts 298°
2026-04-12 03:18 -11.19699 128.56938 33942 ft 461 kts 298°
2026-04-12 03:18 -11.16644 128.51189 33951 ft 461 kts 298°
2026-04-12 03:19 -11.13612 128.45486 33938 ft 461 kts 298°
2026-04-12 03:19 -11.10555 128.39737 33946 ft 462 kts 298°
2026-04-12 03:20 -11.07498 128.33992 33949 ft 461 kts 298°
2026-04-12 03:20 -11.04444 128.28256 33936 ft 461 kts 298°
2026-04-12 03:21 -11.01409 128.22557 33945 ft 461 kts 298°
2026-04-12 03:21 -10.98354 128.16826 33941 ft 461 kts 298°
2026-04-12 03:22 -10.95299 128.11097 33936 ft 461 kts 298°
2026-04-12 03:22 -10.94510 128.09618 33939 ft 461 kts 298°
2026-04-12 03:23 -10.92469 128.05794 33971 ft 460 kts 298°
2026-04-12 03:23 -10.89412 128.00067 33946 ft 460 kts 298°
2026-04-12 03:24 -10.86355 127.94345 33947 ft 460 kts 298°
2026-04-12 03:24 -10.83295 127.88618 33936 ft 460 kts 298°
2026-04-12 03:25 -10.80257 127.82938 33941 ft 460 kts 298°
2026-04-12 03:25 -10.77201 127.77225 33936 ft 460 kts 298°
2026-04-12 03:26 -10.74143 127.71513 33947 ft 460 kts 298°
2026-04-12 03:26 -10.71090 127.65813 33943 ft 459 kts 298°
2026-04-12 03:27 -10.68036 127.60112 33943 ft 458 kts 298°
2026-04-12 03:27 -10.67278 127.58699 33940 ft 458 kts 298°
2026-04-12 03:28 -10.64544 127.53600 33949 ft 458 kts 298°
2026-04-12 03:28 -10.61499 127.47924 33947 ft 457 kts 298°
2026-04-12 03:29 -10.58450 127.42244 33937 ft 457 kts 298°
2026-04-12 03:29 -10.55428 127.36615 33951 ft 457 kts 298°
2026-04-12 03:30 -10.52382 127.30945 33946 ft 457 kts 298°
2026-04-12 03:30 -10.49331 127.25272 33943 ft 458 kts 298°
2026-04-12 03:31 -10.46278 127.19595 33950 ft 458 kts 298°
2026-04-12 03:31 -10.43223 127.13918 33944 ft 458 kts 298°
2026-04-12 03:32 -10.40184 127.08281 33954 ft 458 kts 298°
2026-04-12 03:32 -10.39417 127.06859 33950 ft 458 kts 298°
2026-04-12 03:33 -10.36623 127.01680 33949 ft 458 kts 298°
2026-04-12 03:33 -10.33555 126.95999 33960 ft 459 kts 298°
2026-04-12 03:34 -10.30508 126.90358 33955 ft 459 kts 298°
2026-04-12 03:34 -10.27438 126.84677 33957 ft 459 kts 298°
2026-04-12 03:35 -10.24364 126.78991 33955 ft 460 kts 298°
2026-04-12 03:35 -10.21284 126.73297 33956 ft 460 kts 299°
2026-04-12 03:36 -10.18222 126.67639 33960 ft 460 kts 299°
2026-04-12 03:36 -10.15139 126.61942 33953 ft 461 kts 299°
2026-04-12 03:37 -10.12052 126.56244 33954 ft 461 kts 299°
2026-04-12 03:37 -10.11305 126.54866 33948 ft 461 kts 299°
2026-04-12 03:38 -10.08395 126.49498 33958 ft 460 kts 299°
2026-04-12 03:38 -10.05311 126.43807 33957 ft 460 kts 299°
2026-04-12 03:39 -10.02227 126.38124 33954 ft 460 kts 299°
2026-04-12 03:39 -9.99141 126.32439 33956 ft 460 kts 299°
2026-04-12 03:40 -9.96059 126.26765 33956 ft 459 kts 299°
2026-04-12 03:40 -9.92998 126.21132 33958 ft 459 kts 299°
2026-04-12 03:41 -9.89919 126.15462 33954 ft 459 kts 299°
2026-04-12 03:41 -9.86902 126.09756 33954 ft 459 kts 296°
2026-04-12 03:42 -9.84141 126.03929 33954 ft 459 kts 295°
2026-04-12 03:42 -9.83501 126.02550 33949 ft 459 kts 295°
2026-04-12 03:43 -9.80901 125.96967 33953 ft 459 kts 295°
2026-04-12 03:43 -9.78146 125.91127 33956 ft 459 kts 296°
2026-04-12 03:44 -9.75379 125.85300 33959 ft 459 kts 296°
2026-04-12 03:44 -9.72605 125.79470 33955 ft 459 kts 296°
2026-04-12 03:45 -9.69844 125.73667 33956 ft 460 kts 296°
2026-04-12 03:45 -9.67063 125.67827 33956 ft 460 kts 296°
2026-04-12 03:46 -9.64285 125.61992 33959 ft 460 kts 296°
2026-04-12 03:46 -9.61504 125.56156 33966 ft 460 kts 296°
2026-04-12 03:47 -9.58740 125.50358 33962 ft 460 kts 296°
2026-04-12 03:47 -9.58087 125.48989 33960 ft 460 kts 296°
2026-04-12 03:48 -9.55435 125.43430 33965 ft 460 kts 296°
2026-04-12 03:48 -9.53123 125.38586 33965 ft 460 kts 296°
2026-04-12 03:49 -9.49883 125.31800 33969 ft 460 kts 296°
2026-04-12 03:49 -9.47099 125.25970 33960 ft 460 kts 296°
2026-04-12 03:50 -9.44779 125.21115 33944 ft 460 kts 296°
2026-04-12 03:50 -9.41991 125.15283 33933 ft 460 kts 296°
2026-04-12 03:51 -9.39203 125.09456 33929 ft 460 kts 296°
2026-04-12 03:51 -9.35960 125.02687 33936 ft 459 kts 296°
2026-04-12 03:52 -9.33624 124.97810 33936 ft 459 kts 296°
2026-04-12 03:52 -9.32537 124.95543 33938 ft 459 kts 296°